User: anonymous   Login
Location: Weston
(26.1283°N, 80.4075°W)
Time: 08:19:23
(UTC-05:00)
Language:

H-2A R/B - Orbit

View from above orbital plane
View from above orbital plane
View from above satellite
View from above satellite

Ground track
Ground track

The orbit data is extracted from the following two-line orbital elements,

1 26899U 01038B   17325.18732210  .00001013  00000-0  41884-3 0  9991
2 26899  28.4591   1.6275 7118850 291.7680   9.8917  2.48249430140419
Epoch (UTC): 21 November 2017 04:29:44
Eccentricity: 0.7118850
inclination: 28.4591°
perigee height: 260 km
apogee height: 33063 km
right ascension of ascending node: 1.6275°
argument of perigee: 291.7680°
revolutions per day: 2.48249430
mean anomaly at epoch: 9.8917°
orbit number at epoch: 14041

The dashed part of the orbit path shows where the satellite is in the earth's shadow,  

DLR